DMSP 5D-2 F13 DEB, 40673

Orbit data source: Space-Track

DMSP 5D-2 F13 DEB, 40673 is space debris in SSO originally from a launch on Fri, 24 Mar 1995 UTC launched from the Air Force Western Test Range (AFWTR). Debris objects in space refer to the collection of defunct objects orbiting the Earth. Examples of debris include non-operational satellites, rocket bodies, and fragments generated from explosions, collisions, or faulty payload assembly.

Loading next visibility...
Identifier
40673, 1995-015FM
Orbit
SSO
Country
Flag of USUS
Related business
Manufacturer
Unknown
Mission
Spacecraft
Bus & Motor
Unknown
Mass
Unknown
Launch date (UTC)
1995-03-24 (31 years ago)
Launch vehicle
Unknown
Launch site
Air Force Western Test Range (AFWTR)
Object type
Payload
Rocket body
Debris
Shape & HBR
Unknown shape, 0.1 m
Radar Cross Section
Small (<0.1 m²)

Expand to show TLE details & history
Last TLE update: 18 hours ago

TLE from 18 hours ago
0 DMSP 5D-2 F13 DEB
1 40673U 95015FM  26124.77845162  .00000410  00000-0  20231-3 0  9991
2 40673  98.6959 141.4921 0023934 150.5958 209.6573 14.22643496574564
Epoch: 2026-05-04T18:40Z
TLE epoch observation values (Epoch: 2026-05-04T18:40:58.219Z)
Latitude
0.00004°
Longitude
-1.41325°
Altitude
834.322 km
Speed
7.428 km/s
True Right ascension
09h 25m 58s
True Declination
0° 00' 00"
Sunlit
Object was in daylight at epoch
Visualization orbit readout
Latitude
Unknown
Longitude
Unknown
Altitude
Unknown
Speed
Unknown
Apparent Right ascension
Unknown
Apparent Declination
Unknown
Sunlit
N/A
Visualization observer readout
Local Sidereal Time
20:39:41
Azimuth
Unknown
Elevation
Unknown
Doppler factor
Unknown
Orbital elements
Apogee altitude
830.794 km
Perigee altitude
796.368 km
Semi-major axis
7,191.718 km
Eccentricity
0.00239
Inclination
98.6959°
RAAN
141.4921°
Arg. of periapsis
150.5958°
True anomaly
209.52194°
Mean anomaly
209.6573°
Eccentric anomaly
209.58959°
Mean motion
3.55872 °/min
Orbital period
101.16 mins
BSTAR
0.00020231
Loading maneuver chart data...
Computing Atmospheric mass density...
Loading historical data...
Loading historical data...
Loading historical data...
Loading historical data...
Loading historical data...
Loading historical data...
Loading historical data...

Documentation

Showing up to 5 results
|